Orbital Elements at Epoch 2459000.5 (2020-May-31.0) TDB
Reference: JPL 31 (heliocentric ecliptic J2000)
Element | Value | Uncertainty (1-sigma) | Units |
e | .1082115572959517 | 3.3979e-08 | |
a | 2.368326546963566 | 7.1032e-09 | au |
q | 2.112046243131294 | 8.2846e-08 | au |
i | 2.903639462244486 | 3.1644e-06 | deg |
node | 273.4087456047334 | 7.0609e-05 | deg |
peri | 54.47175192056559 | 7.2081e-05 | deg |
M | 271.9896753671341 | 1.536e-05 | deg |
tp | 2459325.955731115470 (2021-Apr-21.45573112) | 5.7094e-05 | TDB |
period | 1331.253619280666 3.64 | 5.9892e-06 1.64e-08 | d yr |
n | .2704218000132262 | 1.2166e-09 | deg/d |
Q | 2.624606850795837 | 7.8719e-09 | au |
|
| | Orbit Determination Parameters
Additional Information
|